Temp
13 12 12 12 12 12 12 12 12 11 11 12 12 12 11 11 11 11 11 11 10 10 10 10 10 10 11 11 11 11 11 11 11 11 11 11 11 11 11 11 11 11
12 12 12 11 11 11 11 11 11 11 11 12 12 11 11 10 10 10 10 11 11 10 10 10 10 10 10 11 11 11 11 11 11 11 11 11 11 11 11 11 11 11
11 11 11 11 11 11 11 11 11 11 11 11 11 11 10 10 10 10 10 10 10 10 10 10 10 10 10 11 11 11 11 11 11 11 11 11 11 11 11 11 11 11
11 11 11 11 11 11 11 11 11 11 11 11 10 10 10 10 10 10 10 10 10 10 10 10 10 10 10 10 11 11 11 11 11 11 11 11 11 11 11 11 11 11
11 11 11 11 12 11 11 11 11 11 10 10 10 10 10 10 10 10 10 10 10 10 10 10 10 10 10 10 10 10 10 10 10 11 11 11 11 11 11 10 10 11
11 11 11 11 12 11 11 11 11 11 10 10 10 10 10 10 10 10 10 10 10 10 10 10 10 10 10 10 10 10 10 10 10 10 11 11 11 11 10 10 10 10
11 11 11 11 11 11 11 10 10 10 10 10 10 10 10 10 10 10 10 10 10 10 10 10 10 9 9 9 10 10 10 10 10 10 10 10 10 10 10 10 10 10
11 10 10 10 10 10 10 10 10 10 10 10 10 10 10 10 10 10 10 10 10 10 9 9 9 9 9 9 9 9 9 9 9 9 10 10 10 10 10 9 9 10
10 10 10 10 10 10 10 10 10 10 10 10 10 10 10 10 10 10 10 10 10 9 9 9 9 9 9 9 9 9 9 9 9 9 9 9 9 9 9 9 9 9
10 10 10 10 10 10 10 10 10 10 10 10 10 10 10 10 10 10 10 10 9 9 9 8 8 8 8 8 8 8 9 9 9 9 9 9 9 9 9 9 9 9
10 10 10 10 10 10 10 10 10 10 10 10 10 10 10 10 9 10 10 9 9 9 8 8 7 7 7 7 7 8 8 9 9 9 9 9 9 9 9 9 9 9
10 10 10 10 10 9 9 10 10 10 10 10 10 10 10 9 9 9 9 9 9 8 8 7 7 6 6 6 6 7 8 9 9 9 9 9 9 9 9 9 8 8
10 10 10 10 10 10 10 9 9 9 10 9 9 9 9 9 9 9 9 8 8 8 7 6 6 5 5 5 5 6 7 8 9 9 9 9 8 9 8 8 8 8
10 10 10 10 10 10 9 9 9 9 9 9 9 9 9 9 9 9 9 8 8 7 7 6 5 5 4 4 4 5 6 8 9 8 9 9 8 8 8 8 8 7
10 10 10 10 10 10 9 9 9 9 9 9 9 9 9 9 9 9 9 8 8 7 6 5 5 4 4 4 4 4 5 7 9 8 8 9 8 8 8 8 7 7
10 10 10 10 10 10 9 9 9 9 9 9 9 9 9 9 9 9 9 8 8 7 6 5 4 3 4 4 5 5 5 6 8 8 8 8 8 8 8 8 7 7
11 11 11 10 10 10 10 9 9 9 9 9 9 9 8 8 8 8 8 8 8 7 6 5 4 3 4 5 5 6 6 6 8 8 8 8 8 8 8 8 7 7
11 11 11 11 10 10 10 10 9 9 9 9 9 8 8 8 8 8 8 8 8 7 6 5 4 3 4 5 5 6 6 7 8 8 8 8 8 8 8 8 7 6
11 11 11 11 10 10 10 10 9 9 9 9 9 8 8 8 8 8 8 8 8 7 6 5 4 4 4 5 5 6 7 7 8 8 8 8 8 8 8 8 7 6
11 11 11 11 10 10 10 10 9 9 9 9 9 8 8 8 8 8 8 8 8 7 6 5 4 4 4 5 5 6 7 7 8 8 8 8 8 8 8 8 7 6
11 11 11 10 10 10 10 9 9 9 9 9 9 9 9 8 8 8 8 8 8 7 7 5 4 4 4 4 5 6 7 7 8 8 8 8 8 8 8 8 7 6
11 11 10 10 10 10 10 9 9 9 9 9 9 9 9 8 8 8 8 7 7 7 7 6 4 4 4 4 5 6 6 7 8 8 8 8 8 8 8 8 7 6
11 11 10 10 10 10 10 9 9 9 9 9 9 9 9 9 8 8 8 7 7 7 7 6 5 4 4 4 5 5 6 7 7 8 8 8 8 8 8 8 7 6
11 11 10 10 10 10 9 9 9 9 9 9 9 9 9 9 9 8 8 7 7 6 6 6 5 5 4 4 4 5 5 6 7 7 7 8 8 8 8 8 7 7
11 10 10 10 10 9 9 9 9 9 9 9 9 9 9 9 9 9 8 8 7 6 6 6 6 5 4 4 4 4 4 5 6 6 6 6 8 8 8 8 8 7
10 10 10 10 9 9 9 9 9 9 9 9 10 10 10 9 9 9 8 8 8 7 6 6 6 5 5 4 4 4 4 4 5 6 5 5 7 8 8 8 8 8
Height
843 844 845 846 847 847 848 849 849 850 851 852 852 853 853 853 853 852 852 851 851 850 849 849 848 847 846 845 844 844 843 842 841 841 840 839 838 837 837 836 834 833
845 846 846 847 848 849 849 850 851 851 852 853 853 854 854 854 854 854 853 853 853 852 851 850 849 848 847 846 845 845 844 843 842 841 841 840 839 838 837 836 835 833
846 847 848 848 849 850 850 851 852 853 853 854 854 855 855 855 855 855 855 855 854 853 852 851 850 849 848 847 846 846 845 844 843 842 841 840 840 838 837 836 835 834
848 848 849 850 850 851 852 852 853 854 855 855 856 856 857 857 857 857 856 856 855 854 853 852 851 850 849 848 847 846 846 845 844 843 842 841 840 839 838 837 836 835
849 849 850 851 851 852 853 854 854 855 856 857 857 858 858 858 858 858 858 857 856 855 854 853 852 851 850 849 848 847 846 846 845 844 843 842 841 840 839 838 837 836
850 850 851 852 853 854 854 855 856 856 857 858 858 859 859 859 859 859 859 858 857 856 855 854 853 852 851 850 849 848 847 847 846 845 843 842 841 840 839 839 838 837
851 852 853 854 854 855 855 856 857 858 859 859 860 860 860 860 860 860 859 859 858 857 856 855 854 853 852 851 850 849 848 848 847 845 844 843 842 841 840 840 838 837
852 853 854 855 855 856 856 857 858 859 860 860 861 861 861 861 861 861 860 860 859 858 857 856 855 854 853 852 851 850 849 848 847 846 845 844 843 842 841 840 839 838
853 854 855 855 856 857 858 859 860 860 861 862 862 862 862 862 862 861 861 860 860 859 858 857 856 855 854 853 852 851 850 849 848 847 846 845 844 843 842 841 840 839
854 855 856 857 857 858 859 860 861 862 862 863 863 863 863 863 863 862 862 861 861 860 859 858 857 856 855 854 853 852 851 850 848 847 846 845 844 843 842 842 840 839
855 856 857 858 858 860 860 861 862 862 863 864 864 864 864 863 863 863 862 862 861 861 860 859 858 857 856 854 853 852 851 850 849 848 847 846 845 844 843 842 841 840
856 857 858 859 860 860 861 862 863 863 864 864 864 864 864 864 864 863 863 863 863 862 861 860 859 858 856 854 853 852 851 850 849 848 847 847 846 845 844 843 842 841
857 858 859 859 860 861 862 863 864 864 865 865 865 865 865 864 864 864 864 864 863 863 862 861 860 858 856 854 853 852 851 851 850 849 848 847 846 845 845 844 843 842
857 859 859 860 861 862 863 864 864 865 865 865 866 865 865 865 865 865 865 865 864 864 863 862 860 858 856 854 853 852 852 851 850 850 848 848 847 846 845 844 843 842
858 859 860 861 862 862 864 864 865 866 866 866 866 866 866 866 866 866 866 866 865 865 864 862 861 859 857 856 854 853 852 852 851 850 849 848 847 846 845 844 844 843
859 860 861 862 862 863 864 865 866 866 866 867 867 867 867 867 867 867 866 866 866 865 865 863 862 860 859 857 856 854 853 852 852 851 850 849 848 847 845 844 844 843
859 860 861 863 863 864 865 865 866 867 867 868 868 868 868 868 868 868 867 867 867 867 866 865 864 862 860 859 857 855 854 853 852 852 850 849 848 847 846 845 844 843
860 861 862 863 864 865 866 866 867 868 868 869 869 869 869 868 868 868 868 868 868 868 868 867 866 864 862 860 858 856 855 853 853 852 851 850 849 847 846 845 844 843
860 861 863 864 864 866 867 867 868 868 869 869 869 870 870 869 869 869 869 869 869 869 869 868 867 865 863 861 859 857 856 854 853 853 851 850 849 847 846 845 844 843
860 862 863 864 865 866 867 868 869 869 870 870 870 870 870 870 870 870 870 870 870 870 870 870 868 866 864 862 860 858 856 854 853 853 852 850 849 847 846 845 844 843
861 862 864 865 866 867 868 868 869 869 870 870 870 871 871 871 871 871 871 871 871 871 871 870 869 867 865 863 861 859 856 854 854 853 851 850 849 847 846 844 843 843
861 863 864 865 867 867 868 869 870 870 870 871 871 871 871 871 872 872 872 872 872 871 871 871 870 868 866 863 861 859 856 855 855 853 851 850 849 847 845 844 843 842
862 863 865 866 867 868 869 869 870 870 871 871 871 872 872 872 872 872 873 873 872 872 871 871 870 868 866 864 862 860 857 856 855 854 852 850 848 847 845 843 842 841
862 864 865 866 867 868 869 870 870 871 871 871 872 872 872 872 872 873 873 873 873 872 872 871 870 869 867 865 863 861 859 857 856 855 853 851 848 846 845 843 841 840
863 864 865 867 868 869 869 870 870 871 871 871 872 872 872 872 872 873 873 873 873 872 872 871 871 869 868 866 864 862 860 858 857 856 854 852 849 846 845 843 842 840
863 865 866 867 868 869 869 870 871 871 872 872 871 872 872 872 873 873 873 873 873 872 872 871 871 869 868 866 865 863 861 859 858 857 855 853 850 847 845 843 842 840
Wind_Speed
8 9 9 10 10 10 10 10 10 9 8 8 8 8 9 9 9 10 11 11 12 12 11 11 11 11 10 10 10 9 9 10 9 9 10 10 10 10 11 11 12 12
9 10 10 10 11 11 11 11 10 10 9 9 9 9 9 10 10 10 10 10 11 11 11 11 11 12 11 10 10 9 10 11 10 10 10 10 10 11 11 12 12 13
11 11 11 11 12 11 11 10 10 10 9 9 9 8 9 9 9 10 9 9 10 11 11 11 11 12 12 11 11 10 11 12 12 11 10 10 11 12 12 12 12 13
11 11 11 11 11 11 11 11 10 10 9 9 9 8 8 8 8 9 9 9 10 10 11 12 12 12 12 12 12 11 11 12 13 12 11 11 11 12 12 13 13 13
11 11 11 11 11 11 11 11 10 10 9 9 8 8 7 7 7 8 9 9 10 10 11 12 12 12 12 12 12 12 12 12 13 13 12 12 12 12 12 13 14 14
12 12 12 12 12 11 11 11 10 10 9 9 8 8 7 7 7 8 9 9 10 11 11 12 12 12 12 12 12 13 13 12 13 13 13 12 13 13 13 13 14 14
12 12 12 12 12 11 11 11 10 10 9 8 8 8 7 7 7 8 8 9 11 12 12 12 13 13 13 13 12 13 12 12 13 14 13 13 13 13 13 13 13 14
12 12 12 12 12 11 11 11 10 9 9 9 8 8 8 7 7 8 8 10 11 12 13 13 14 13 13 13 13 13 12 12 13 13 13 13 13 13 14 13 13 14
12 12 12 12 12 11 11 10 10 9 8 8 8 8 8 8 8 8 9 10 11 12 13 14 14 14 14 13 13 13 12 12 13 13 12 13 13 13 14 14 14 14
12 12 12 11 11 11 11 10 9 9 9 8 8 8 8 8 8 9 9 10 11 12 14 14 15 15 14 14 14 13 12 12 12 12 12 12 12 13 13 14 14 15
13 12 12 12 11 11 10 10 9 9 8 8 8 8 8 8 8 9 10 11 12 13 14 15 15 16 16 15 15 14 12 11 12 13 12 12 12 12 13 14 15 15
13 12 12 12 11 11 10 9 9 8 8 8 8 8 8 9 9 9 10 11 12 13 14 15 15 17 18 17 16 15 13 11 12 13 12 12 13 13 13 14 15 16
13 12 12 11 11 10 10 9 9 8 8 8 8 9 9 9 9 9 10 11 11 12 14 15 16 18 19 19 17 15 14 12 12 12 12 12 13 13 13 14 15 16
13 12 12 11 11 11 10 10 9 9 9 9 9 9 9 9 9 9 10 10 11 12 13 15 17 19 21 20 19 17 14 12 12 12 12 12 13 13 13 15 16 16
13 12 12 11 11 11 11 10 10 9 9 9 9 9 9 9 9 9 10 11 11 12 14 16 18 21 20 19 19 19 15 12 11 12 12 12 13 13 13 15 16 16
13 12 12 12 12 11 11 10 10 10 9 9 9 9 9 9 9 9 10 11 12 13 14 15 19 22 19 15 16 17 15 11 11 12 12 12 13 13 14 15 16 17
13 13 13 12 12 12 11 11 10 10 10 10 10 9 9 9 9 10 10 11 12 14 14 15 19 22 18 14 14 15 14 11 10 11 11 11 13 13 13 16 17 17
14 14 13 13 12 12 11 11 11 10 10 10 10 10 9 9 10 9 9 10 11 14 15 14 19 22 18 13 13 13 13 11 10 10 11 11 12 13 14 16 17 18
14 14 14 13 12 12 12 11 11 11 10 10 10 10 10 10 10 9 9 9 10 12 14 15 18 21 19 14 12 12 13 12 10 10 11 12 12 13 15 16 16 18
15 14 14 13 13 12 12 12 11 11 10 10 9 9 10 10 10 10 9 9 8 10 12 14 18 21 21 16 13 12 13 12 11 10 10 12 13 13 14 15 16 18
15 15 14 13 13 12 12 12 11 10 10 9 9 9 9 9 10 10 9 8 8 8 10 13 18 20 21 19 15 13 13 13 11 10 11 12 13 14 15 15 16 17
15 15 14 13 13 13 12 11 10 10 9 9 9 9 9 9 9 9 10 9 8 7 8 11 16 19 20 20 18 15 14 15 13 11 12 12 12 14 15 14 15 16
15 15 14 13 13 12 12 11 10 9 9 9 8 8 8 9 9 9 9 10 9 8 7 8 12 18 19 20 20 18 16 15 14 13 13 13 13 14 15 14 14 14
15 14 14 13 12 12 11 10 10 9 8 8 8 8 8 8 8 8 8 8 9 10 9 7 9 15 19 19 18 19 18 16 15 15 14 14 14 14 15 15 15 14
14 14 13 13 12 11 10 10 9 8 8 7 8 8 8 7 7 7 7 7 7 8 10 9 8 12 19 19 16 18 20 17 15 15 15 14 14 15 15 16 16 16
14 13 13 12 12 11 10 9 9 8 7 7 7 7 7 7 6 6 6 6 6 5 6 8 8 10 17 19 16 16 20 19 15 15 16 16 15 16 16 16 18 18
Wind_Direction
92 97 100 96 90 92 94 95 95 91 88 83 74 68 59 52 46 45 45 42 40 37 33 32 31 30 31 29 27 30 27 22 19 16 13 10 7 4 1 359 358 353
92 96 100 99 97 95 93 92 94 93 90 84 77 72 64 57 53 50 48 45 43 40 37 36 35 34 34 32 29 30 29 25 20 15 13 12 9 6 3 1 359 356
93 95 96 97 99 98 95 94 94 93 92 84 77 74 68 62 58 54 51 49 47 43 39 38 38 37 35 34 32 32 30 25 20 13 11 14 11 8 6 2 0 358
95 95 97 97 98 99 97 97 95 92 89 83 78 75 72 66 61 58 53 50 49 45 42 39 38 37 34 33 33 31 28 25 19 15 15 17 12 9 8 4 2 360
97 97 98 98 99 100 99 98 94 90 86 82 79 76 74 70 64 62 56 52 50 46 44 41 38 36 32 32 31 28 26 22 17 15 16 16 13 12 9 6 4 3
100 99 100 101 102 101 98 95 92 91 87 82 81 78 75 72 66 64 59 54 52 47 44 41 37 34 31 29 29 26 24 18 14 14 15 14 12 12 11 8 5 5
103 102 101 101 100 97 94 92 89 89 87 84 84 79 78 75 69 66 61 56 53 47 44 40 35 32 28 25 24 22 20 16 13 13 13 13 11 10 11 8 4 5
104 101 100 98 97 95 93 92 88 87 88 86 83 78 78 76 70 67 63 59 55 48 43 39 34 29 24 21 19 15 15 14 11 11 12 12 10 10 10 8 6 5
104 101 101 98 96 94 92 91 89 88 88 86 84 80 77 74 71 69 65 60 55 49 43 37 32 27 21 18 14 10 10 11 10 10 11 10 10 11 10 7 7 6
105 103 102 99 95 94 92 92 90 88 87 85 83 81 77 75 73 69 66 60 55 49 42 35 30 24 19 15 11 8 7 9 10 10 11 12 11 10 10 8 7 6
105 103 101 98 96 95 93 93 92 90 88 84 82 80 76 74 72 68 65 61 55 49 41 34 28 22 16 12 9 6 5 8 11 11 12 14 10 10 11 9 8 7
107 104 101 99 97 96 94 94 93 90 88 83 80 77 75 72 70 67 65 62 57 49 41 33 27 20 14 9 7 6 6 9 11 10 14 15 10 11 12 10 9 8
108 105 103 101 99 99 97 95 93 90 87 82 77 75 73 72 72 69 66 62 57 49 40 32 25 19 13 10 9 6 5 8 11 11 14 14 10 11 13 11 9 7
110 107 106 104 103 102 99 97 95 91 87 82 77 73 70 70 72 72 69 63 57 49 40 32 25 19 15 15 13 8 2 4 11 12 10 13 12 10 11 11 8 5
113 111 109 108 107 104 101 100 96 92 89 84 78 73 71 71 72 72 71 64 57 49 39 33 26 19 18 20 16 11 6 3 9 12 9 11 12 9 8 8 6 3
116 115 113 111 110 106 103 101 96 93 89 84 79 76 73 74 74 73 72 64 56 48 40 34 26 19 20 27 23 18 11 1 3 10 10 11 10 7 7 5 1 360
119 119 115 112 111 107 105 102 98 96 91 85 82 78 76 76 75 74 72 66 58 49 43 36 26 19 21 29 29 26 18 4 2 9 11 12 9 5 5 3 359 358
122 120 116 114 112 108 106 104 102 99 94 89 85 80 78 76 73 73 72 69 64 53 45 37 26 21 23 28 28 28 23 11 5 10 10 8 7 5 4 3 360 357
124 120 116 114 111 110 110 107 104 102 96 93 89 84 80 76 72 72 70 69 69 59 49 39 27 21 23 26 25 25 25 18 9 10 10 8 6 5 4 4 2 358
124 121 117 115 114 113 112 109 106 103 100 98 94 87 83 79 73 71 68 67 71 67 55 40 28 23 24 27 26 24 26 25 16 9 10 9 7 5 5 6 4 359
125 122 119 118 117 115 112 109 106 105 103 99 95 90 86 82 76 71 68 66 66 69 63 43 28 24 26 27 26 22 22 23 16 6 7 9 7 6 4 5 4 360
128 126 123 121 120 117 114 110 108 106 104 101 98 94 89 85 81 74 68 64 61 62 66 48 28 21 24 27 25 21 19 18 14 8 5 7 8 5 2 5 9 6
131 129 127 124 122 119 116 113 112 108 105 104 102 98 94 89 86 81 72 66 60 51 55 54 29 17 19 23 23 24 21 14 11 10 3 2 7 3 359 6 11 9
133 132 129 127 124 121 118 116 114 111 106 105 102 98 98 93 89 89 80 72 66 53 47 53 30 12 13 16 17 21 23 13 7 10 3 358 3 0 357 3 2 357
134 132 130 129 125 123 122 118 116 116 112 111 108 102 100 96 89 88 82 75 74 62 49 50 38 12 10 13 12 17 21 15 6 7 3 354 354 356 355 356 354 349
133 132 131 130 128 124 123 119 116 116 113 110 106 102 100 97 92 88 84 74 70 67 53 46 40 17 7 11 16 20 21 17 8 3 359 348 343 350 353 350 350 349